{"data":{"norad_id":49261,"epoch":"2026-05-25T02:55:39.681120Z","epoch_age_seconds":60598,"freshness":"FRESH","line1":"1 49261U 21088B   26145.12198705  .00015010  00000+0  45753-3 0  9995","line2":"2 49261  97.3780 208.4063 0013242 156.5898 203.5950 15.33968854256880","mean_motion":15.33968854,"eccentricity":0.0013242,"inclination_deg":97.378,"raan_deg":208.4063,"arg_perigee_deg":156.5898,"mean_anomaly_deg":203.595,"bstar":0.00045753,"rev_number":25688,"period_min":93.874135465335,"perigee_km":454.92465916565,"apogee_km":473.04533506281,"semimajor_km":6842.1219971142,"source":"CELESTRAK","updated_at":"2026-05-25T13:37:57.137575Z"}}